Standort: A- 4920 Schildorn, St. Kollmann 6
Position: Ost 1327'49" Nord 4807'14" 563 m Seehhe
Werte der letzten 24 Stunden
Wetterdaten: aktuell Montag, 06.12.2021 21:55
Datum Zeit Temp. A. Feuchte A. Luftdruck Regen Sonnenschein UV Solar
06.12.2021 21:55 1,0 C 89 % 1013,4 hPa 0,0 l/m 0 min 0,0 UV-I 0 W/m
06.12.2021 20:55 1,0 C 89 % 1013,9 hPa 0,0 l/m 0 min 0,0 UV-I 0 W/m
06.12.2021 19:55 1,3 C 89 % 1014,2 hPa 0,0 l/m 0 min 0,0 UV-I 0 W/m
06.12.2021 18:55 1,3 C 89 % 1014,4 hPa 0,0 l/m 0 min 0,0 UV-I 0 W/m
06.12.2021 17:55 1,4 C 89 % 1014,4 hPa 0,0 l/m 0 min 0,0 UV-I 0 W/m
06.12.2021 16:55 1,3 C 89 % 1014,2 hPa 0,0 l/m 0 min 0,0 UV-I 0 W/m
06.12.2021 15:55 1,5 C 89 % 1014,0 hPa 0,0 l/m 0 min 0,0 UV-I 7 W/m
06.12.2021 14:55 1,6 C 88 % 1013,7 hPa 0,0 l/m 0 min 0,0 UV-I 49 W/m
06.12.2021 13:55 1,6 C 89 % 1013,4 hPa 0,0 l/m 0 min 0,0 UV-I 76 W/m
06.12.2021 12:55 1,6 C 89 % 1013,4 hPa 0,0 l/m 10 min 0,0 UV-I 35 W/m
06.12.2021 11:55 1,7 C 89 % 1013,3 hPa 0,0 l/m 11 min 0,0 UV-I 345 W/m
06.12.2021 10:55 1,2 C 89 % 1013,3 hPa 0,0 l/m 0 min 0,0 UV-I 74 W/m
06.12.2021 09:55 1,6 C 89 % 1013,0 hPa 0,0 l/m 25 min 0,0 UV-I 55 W/m
06.12.2021 08:55 0,7 C 89 % 1012,3 hPa 0,0 l/m 0 min 0,0 UV-I 37 W/m
06.12.2021 07:55 0,7 C 89 % 1011,8 hPa 0,0 l/m 0 min 0,0 UV-I 5 W/m
06.12.2021 06:55 0,8 C 89 % 1010,9 hPa 0,0 l/m 0 min 0,0 UV-I 0 W/m
06.12.2021 05:55 0,8 C 89 % 1010,0 hPa 0,0 l/m 0 min 0,0 UV-I 0 W/m
06.12.2021 04:55 0,7 C 89 % 1009,4 hPa 0,0 l/m 0 min 0,0 UV-I 0 W/m
06.12.2021 03:55 0,8 C 89 % 1009,0 hPa 0,0 l/m 0 min 0,0 UV-I 0 W/m
06.12.2021 02:55 0,9 C 89 % 1008,9 hPa 0,0 l/m 0 min 0,0 UV-I 0 W/m
06.12.2021 01:55 0,5 C 89 % 1008,4 hPa 0,0 l/m 0 min 0,0 UV-I 0 W/m
06.12.2021 00:55 0,3 C 89 % 1008,0 hPa 0,0 l/m 0 min 0,0 UV-I 0 W/m
05.12.2021 23:55 0,6 C 89 % 1007,8 hPa 0,0 l/m 0 min 0,0 UV-I 0 W/m
05.12.2021 22:55 0,2 C 89 % 1007,4 hPa 0,0 l/m 0 min 0,0 UV-I 0 W/m
05.12.2021 22:00 0,5 C 89 % 1007,0 hPa 0,0 l/m 0 min 0,0 UV-I 0 W/m
_ Min-Zeit 22:43 14:50 22:00 - - - -
Minimum _ 0,2 C 88 % 1007,0 hPa - - - -
_ Max-Zeit 09:42 22:00 17:37 22:00 09:20 11:47 11:49
Maximum _ 1,9 C 89 % 1014,5 hPa 0,0 l/m 1 min 0,6 UV-I 468 W/m
Durchschnitt _ 1,0 C 89 % 1011,3 hPa #0,0 l/m #46 min. 0,5 UV-I 77 W/m
Daten ab 1. Mai 2002 - die Jahresstatistiken sind aber falsch (grere Aufzeichnungslcken)